This demonstration page uses our WeatherBlox Daily Observations layout. Learn more.

Left ArrowRight Arrow

39.12711, -84.51439

Hourly Observations for June 18, 2017

Temp ( °F °C ) Dew Point ( °F °C ) Humidity (%) Winds ( mph kmh ) Pressure ( in mb ) Visibility ( mi km ) Precip ( " mm )
12:53 am 00:53 Clear 73 22.8 67 19.4 81 81 S 9 15 29.74 1007 10 16 0.00 0.00
1:53 am 01:53 Clear 73 22.8 67 19.4 81 81 SSW 7 11 29.73 1007 10 16 0.00 0.00
2:53 am 02:53 Clear 72 22.2 67 19.4 84 84 S 7 11 29.75 1008 10 16 0.00 0.00
3:53 am 03:53 Partly Cloudy 70 21.1 68 20 93 93 SSE 3 6 29.77 1008 10 16 0.00 0.00
4:53 am 04:53 Partly Cloudy 71 21.7 69 20.6 94 94 Calm 29.76 1008 10 16 0.00 0.00
5:53 am 05:53 Mostly Cloudy 72 22.2 68 20 87 87 SSW 6 9 29.76 1008 10 16 0.00 0.00
6:19 am 06:19 Partly Cloudy with Nearby Thunderstorms 73 22.8 69 20.6 87 87 SW 7 11 29.77 1008 10 16 0.00 0.00
6:28 am 06:28 Mostly Cloudy with Thunderstorms 74 23.3 69 20.6 85 85 W 10 17 29.80 1009 10 16 0.00 0.00
6:53 am 06:53 Mostly Cloudy with Thunderstorms 74 23.3 69 20.6 85 85 SSW 10 17 29.77 1008 5 8 0.01 0.25
7:07 am 07:07 Mostly Cloudy with Light Rain 72 22.2 70 21.1 94 94 S 9 15 29.80 1009 9 14 0.01 0.25
7:11 am 07:11 Mostly Cloudy with Light Rain 72 22.2 70 21.1 94 94 S 8 13 29.80 1009 10 16 0.01 0.25
7:53 am 07:53 Mostly Cloudy 73 22.8 71 21.7 94 94 SSE 3 6 29.79 1009 10 16 0.01 0.25
8:53 am 08:53 Partly Cloudy 75 23.9 72 22.2 90 90 S 9 15 29.72 1006 10 16 0.02 0.51
9:53 am 09:53 Mostly Sunny 77 25 73 22.8 88 88 S 16 26 29.68 1005 10 16 0.00 0.03
10:22 am 10:22 Mostly Cloudy 78 25.6 73 22.8 85 85 SSW 14 22 29.71 1006 10 16 0.00 0.00
10:40 am 10:40 Partly Cloudy 80 26.7 74 23.3 82 82 SW 14 22 29.74 1007 10 16 0.00 0.00
10:53 am 10:53 Mostly Cloudy 81 27.2 74 23.3 79 79 SW 18 30 29.72 1006 10 16 0.00 0.00
11:45 am 11:45 Partly Cloudy 83 28.3 74 23.3 74 74 SSW 15 24 29.74 1007 10 16 0.00 0.00
11:53 am 11:53 Partly Cloudy 83 28.3 73 22.8 72 72 SW 14 22 29.72 1007 10 16 0.00 0.00
12:53 pm 12:53 Partly Cloudy 83 28.3 71 21.7 67 67 WSW 16 26 29.74 1007 10 16 0.00 0.00
1:53 pm 13:53 Partly Cloudy 83 28.3 70 21.1 65 65 SW 20 31 29.75 1007 10 16 0.00 0.00
2:53 pm 14:53 Mostly Cloudy 84 28.9 70 21.1 63 63 WSW 15 24 29.72 1006 10 16 0.00 0.00
3:53 pm 15:53 Mostly Sunny 85 29.4 69 20.6 59 59 WSW 18 30 29.73 1007 10 16 0.00 0.00
4:53 pm 16:53 Sunny 84 28.9 68 20 59 59 W 16 26 29.69 1005 10 16 0.00 0.00
5:53 pm 17:53 Mostly Sunny 85 29.4 71 21.7 63 63 SW 15 24 29.70 1006 10 16 0.00 0.00
6:53 pm 18:53 Mostly Cloudy 83 28.3 71 21.7 67 67 WSW 9 15 29.70 1006 10 16 0.00 0.00
7:24 pm 19:24 Mostly Cloudy with Nearby Thunderstorms 82 27.8 73 22.8 74 74 S 13 20 29.74 1007 10 16 0.00 0.00
7:42 pm 19:42 Mostly Cloudy with Nearby Thunderstorms 79 26.1 74 23.3 85 85 S 15 24 29.74 1007 10 16 0.00 0.00
7:53 pm 19:53 Cloudy 78 25.6 74 23.3 87 87 S 12 19 29.73 1007 10 16 0.00 0.00
8:53 pm 20:53 Partly Cloudy with Light Rain 75 23.9 73 22.8 94 94 S 8 13 29.74 1007 10 16 0.00 0.03
9:53 pm 21:53 Cloudy 75 23.9 73 22.8 94 94 SSW 5 7 29.76 1008 10 16 0.00 0.03
10:53 pm 22:53 Cloudy with Light Rain 74 23.3 67 19.4 79 79 NW 12 19 29.79 1009 9 14 0.01 0.25
11:13 pm 23:13 Cloudy with Strong Thunderstorms 70 21.1 68 20 93 93 WNW 9 15 29.83 1010 2 3 0.11 2.79

Powered by AerisWeather